This is the latest recevied weather packets stored in our database for station/object MeshWX-1. If no packets are shown the sender has not sent any weather packets the latest 10 day(s).
| Time | Temp. | Humidity | Pressure | Rain* | Wind** | Luminosity | Snow |
|---|---|---|---|---|---|---|---|
| 1787918887 | 26.11° C | 62% | 1003.4 hPa | - | - | - | - |
| 1787918382 | 26.11° C | 62% | 1003.4 hPa | - | - | - | - |
| 1787916984 | 26.11° C | 62% | 1003.4 hPa | - | - | - | - |
| 1787916930 | 26.11° C | 62% | 1003.4 hPa | - | - | - | - |
| 1787916230 | 24.44° C | 64% | 1003.7 hPa | - | - | - | - |
| 1787914859 | 24.44° C | 64% | 1003.7 hPa | - | - | - | - |
| 1787914779 | 23.89° C | 68% | 1003.9 hPa | - | - | - | - |
| 1787914063 | 23.89° C | 68% | 1003.9 hPa | - | - | - | - |
| 1787912681 | 23.89° C | 68% | 1003.9 hPa | - | - | - | - |
| 1787911841 | 23.33° C | 71% | 1003.9 hPa | - | - | - | - |
| 1787910521 | 23.33° C | 71% | 1003.9 hPa | - | - | - | - |
| 1787910422 | 22.78° C | 73% | 1004 hPa | - | - | - | - |
| 1787909681 | 22.78° C | 73% | 1004 hPa | - | - | - | - |
| 1787908366 | 22.78° C | 73% | 1004 hPa | - | - | - | - |
| 1787907521 | 21.67° C | 79% | 1004.1 hPa | - | - | - | - |
| 1787906273 | 21.67° C | 79% | 1004.1 hPa | - | - | - | - |
| 1787906112 | 21.11° C | 83% | 1004 hPa | - | - | - | - |
| 1787905421 | 21.11° C | 83% | 1004 hPa | - | - | - | - |
| 1787904238 | 21.11° C | 83% | 1004 hPa | - | - | - | - |
| 1787903320 | 20.56° C | 85% | 1003.8 hPa | - | - | - | - |
| 1787902204 | 20.56° C | 85% | 1003.8 hPa | - | - | - | - |
| 1787902039 | 33.33° C | 38% | 1001.2 hPa | - | - | - | - |
| 1787901282 | 33.33° C | 38% | 1001.2 hPa | - | - | - | - |
| 1787901220 | 33.33° C | 38% | 1001.2 hPa | - | - | - | - |
| 1787901117 | 33.33° C | 38% | 1001.2 hPa | - | - | - | - |
* Rain since midnight (hover to see other rain measurements)
** Current wind speed in m/s (hover to see current wind gust speed)